Погода в Жердевке

Погода в Жердевке : погода сейчас, прогноз погоды и архив. Всё, что Вы хотите узнать о погоде в Жердевке!

Хотите узнать прогноз погоды в Жердевке? Тогда Вам сюда: Погода в Жердевке

Поиск расширенной информации на нашем сайте:

Другие новости

Новости СМИ2

Главная страница сайта

Новости сайта

03.07.2017

Напоминаем, что на нашем специализированном сайте Метеоцентр.Азия вы можете получить высокодетализированные автоматические прогнозы погоды по пунктам России, СНГ и мира в авиационном формате (включающие направление и скорость ветра, видимость, явления погоды, количество и форму облачности, нижнюю и верхнюю границу облачности).

Рекомендуем: Информация Разработка элементов экипировки здесь.

Погода в Жердевке - сегодня

Время (UTC), дата Ветер
(°,м/с) 
Видим.   Явления Облачность Т
(°С)
Тd
(°С)
f(%) Тe
(°С)
Pmin
(гПа)
dP
(гПа)
Po
(мм)
O2
(г/м3)
Тmin Tmax R s Состояние
почвы
00 18.04.18 250 (З) 10 км    10/0 средняя 
[As op]
+11.3 +6.2 71 +11  1016.1  -0.3  749  289           
06 18.04.18 180 (Ю) 10 км    10/0 средняя 
[As trans]
+13.2 +3.6 52 +13  1014.2  -1.4  747  287           
15 18.04.18 240 (ЮЗ) 6-10{10}  10 км  слаб. ливневой дождь  10/10 600 м кучево-дожд. 
[Cb cap]
+10.3 +8.6 89 +9  1009.2  -2.1  744  287    +17.2     
21 18.04.18 260 (З) 20000 м    10/0 средняя 
[As trans]
+7.5 +5 84 +6  1008.4  -1.5  743  291           
00 19.04.18 250 (З) 20000 м    10/0 средняя 
[As trans]
+6.9 +3.9 81 +6  1006.2  -2.3  741  291           
15 19.04.18 240 (ЮЗ) 20000 м  в посл. час ливневой дождь  10/10 630 м кучево-дожд. 
[Cb cap]
+8.2 +5.8 85 +8  997.7  -0.7  735  287    +8.7     
03 20.04.18 340 (С) 10 км  слаб. ливневой дождь  10/10 570 м кучево-дожд. 
[Cb cap]
+6.7 +5.1 90 +5  1001  737  289  +6.3       
15 20.04.18 010 (С) 4{13}  20000 м    8/8 570 м кучево-дожд. 
[Cb cap]
+12.5 +3.6 55 +12  1008.3  0.8  743  286    +12.8  0.0     
18 20.04.18 350 (С) 20000 м    5/0 средняя 
[Ac trans]
+8.1 +0.6 59 +7  1011  2.5  745  291           
21 20.04.18 320 (СЗ) 20000 м    ясно 
+4.6 -0.5 69 +3  1011.8  0.5  745  295           
00 21.04.18 300 (СЗ) 20000 м    ясно 
+3.3 -0.5 76 +2  1012  0.1  745  297           
15 21.04.18 240 (ЮЗ) 6-12{16}  20000 м    6/3 1000 м верхняя 
[Cu med, cong|Ci fib]
+16.8 +2.9 39 +17  1000.2  -3.5  737  279    +18.3       
18 21.04.18 210 (ЮЗ) 5{15}  20000 м    3/0 средняя 
[Ac lent]
+13.1 +3 50 +12  997.1  -3.3  735  282           
15 22.04.18 350 (С) 5{12}  20000 м  {ливн. осадки}  8/8 1000 м 
[Cu med, cong]
+9.3 -0.9 49 +8  1000.4  1.7  737  287    +11.8  0.0     
18 22.04.18 020 (С) 20000 м    8/0 средняя 
[Ac trans]
+6.4 -0.7 60 +5  1003.1  2.5  739  291           
21 22.04.18 340 (С) 20000 м    3/0 средняя 
[Ac trans]
+1.2 -3 74 -1  1005.6  2.1  740  297           
00 23.04.18 320 (СЗ) 20000 м    ясно 
+1.8 -2.9 71 1006.3  0.9  741  297           
15 23.04.18 340 (С) 7-11{15}  20000 м    4/4 600 м 
[Cu med, cong]
+6.9 -9.3 30 +4  1010.6  0.6  744  293    +7.9       
18 23.04.18 280 (З) 4{11}  20000 м    ясно 
+2.3 -6.8 51 1013  2.1  746  299           
21 23.04.18 270 (З) 20000 м    ясно 
+0 -6.3 63 -2  1013.4  0.2  746  301           
00 24.04.18 270 (З) 20000 м    ясно 
-0.6 -6.3 65 -2  1014.3  0.8  747  302           
06 24.04.18 300 (СЗ) 10 км    ясно 
+6.8 -5.7 40 +5  1015.3  0.4  748  295          замёрзшая 
09 24.04.18 300 (СЗ) 6-11{11}  20000 м    3/3 1000 м 
[Cu hum]
-7.8   1015.2  0.2  748             
18 24.04.18 190 (Ю) 20000 м    8/0 верхняя 
[Ci fib]
+6.6 -4.7 44 +6  1013.7  -0.1  747  294           
21 24.04.18 190 (Ю) 10 км    10/0 средняя 
[As trans]
+6.1 -3.9 49 +6  1013.2  -0.5  746  295           
Время (UTC), дата Ветер
(°,м/с) 
Видим.   Явления Облачность Т
(°С)
Тd
(°С)
f(%) Тe
(°С)
Pmin
(гПа)
dP
(гПа)
Po
(мм)
O2
(г/м3)
Тmin Tmax R s Состояние
почвы

Для получения пояснительной информации подведите курсор к названию столбца.

ПОГОДА в Жердевке - архив

Всё, что Вы хотите узнать о погоде в Жердевке - удобно и подробно!

Выберите нужную дату (начиная с 1 января 2015* года) и нажмите кнопку "Найти".
Будут отображены архивные сводки погоды по пункту Жердевка, начиная с указанной даты.


Отображать данные в формате CSV (для использования в таблицах Excel)


Внимание! Наш архив погоды предназначен исключительно для личного некоммерческого использования в познавательных целях. Если Вам необходимы официальные справки о состоянии погоды (для производственных, юридических, коммерческих и т.п. целей), обращайтесь в органы Росгидромета.

*Примечание: данная дата относится к архиву по метеостанциям СССР (Россия, СНГ, Балтия).
Архив по метеостанциям Зарубежной Европы и Азии (кроме Китая) хранится 10 дней, по другим регионам земного шара (Китай, Африка, Америка, Австралия, Океания) - 1 день.

Жердевка - район местоположения метеостанции


Название, широта, долгота, высота метеостанции:
Жердевка 51.8°ш. 41.5°д. 147 м над ур. моря [Российская Федерация]

Дополнительная информация

В oтличие oт бoльшинства пoгoдных сайтoв мы публикуем пoдрoбную метеoинфoрмацию в детальнoм прoфессиoнальнoм фoрмате.

Характеристики температуры и влажнoсти вoздуха измеряются на высoте 2 м в тени вдали oт зданий и деревьев.
Скoрoсть ветра измеряется на высoте 10 м (на урoвне рoста челoвека скoрoсть ветра ниже в 1.5-2 раза). Если метеoстанция нахoдится в гoрoде или в лесу, тo скoрoсть ветра занижена на 2-4 м/с пo сравнению с oткрытым местoм. Скoрoсть ветра над акватoриями крупных рек и oзёр, а также на вершинах хoлмoв на 2-5 м/с выше, чем в oбычных услoвиях.
Атмoсфернoе давление в разных тoчках местнoсти мoжет значительнo oтличаться oт давления на метеoстанции, в зависимoсти oт услoвий рельефа (при пoдъёме на 10 м давление пoнижается примернo на 1 мм рт.ст.).